Location: Knowlton
(51.2333°N, 1.2667°E)
Time: 06:30:26
(UTC+00:00)

ISS - Pass Details

Date: 29 September 2021
Orbit: 417 x 423 km, 51.6° (Epoch: 24 October)

Event Time Altitude Azimuth Distance (km) Brightness Sun altitude
Rises 19:48:04 0° 285° (WNW) 2,367 1.6 -20.9°
Reaches altitude 10° 19:50:14 10° 278° (W) 1,502 0.1 -21.2°
Enters shadow 19:53:03 39° 226° (SW) 647 -2.7 -21.6°
